Regional Weather Roundup
Issued by NWS Cleveland, OH

Home | Current Version | Previous Version | Text Only | Print | Product List | Glossary Off
Versions: 1 2 3 4 5 6 7 8 9 10 11 12 13 14 15 16 17 18 19 20 21 22 23 24 25 26 27 28 29 30 31 32 33 34 35 36 37 38 39 40 41 42 43 44 45 46 47 48 49 50

000
ASUS41 KCLE 290710
RWRCLE
OHIO REGIONAL WEATHER ROUNDUP
NATIONAL WEATHER SERVICE CLEVELAND, OH
300 AM EDT SAT APR 29 2017

NOTE: "FAIR" INDICATES FEW OR NO CLOUDS BELOW 12,000 FEET WITH NO
SIGNIFICANT WEATHER AND/OR OBSTRUCTIONS TO VISIBILITY.

OHZ001>008-015>018-024>027-034-035-043-044-290800-
   NORTHWEST OHIO

CITY           SKY/WX    TMP DP  RH WIND       PRES   REMARKS
DEFIANCE       CLOUDY    53  51  93 NE5       29.96R
FINDLAY        CLOUDY    56  52  86 E10       29.95S
TOLEDO EXPRESS CLOUDY    53  53 100 E3        29.97R
TOLEDO EXEC    CLOUDY    54  54 100 E3        29.99R FOG
LIMA           CLOUDY    57  56  96 N7        29.94S
$$

OHZ009>014-019>023-028>033-038-089-290800-
   NORTHEAST OHIO

CITY           SKY/WX    TMP DP  RH WIND       PRES   REMARKS
CLE-HOPKINS    CLOUDY    58  54  86 N7        29.99F
CLE-LAKEFRONT  CLOUDY    56  54  93 N3        29.97F
CUY CO. ARPT   NOT AVBL
LORAIN-ELYRIA  CLOUDY    55  52  89 CALM      29.99R
ASHTABULA      LGT RAIN  55  54  96 CALM      29.98F
AKRON-CANTON   CLOUDY    56  51  84 S7        29.98R
WOOSTER        CLOUDY    54  51  90 S8        29.97R
MANSFIELD      CLOUDY    55  52  89 SE13      29.95S
YOUNGSTOWN     CLOUDY    56  52  86 SE6       29.97F
$$

OHZ042-051>053-060>062-070>072-077>081-290800-
  SOUTHWEST OHIO

CITY           SKY/WX    TMP DP  RH WIND       PRES   REMARKS
CINC-COVINGTON TSTM      66  65  96 S8        29.93S FOG
CINC-LUNKEN    TSTM      63  63 100 NE3       29.95R
HAMILTON       TSTM      61  61 100 E5        29.95R FOG
DAYTON         TSTM      59  58  96 S5        29.93R FOG
WRIGHT-PAT AFB LGT RAIN  60  60 100 SE5       29.94R
DAYTON GENERAL LGT RAIN  59  58  96 SE3       29.94R
WILMINGTON     LGT RAIN  60  60 100 CALM      29.95R
$$

OHZ036-037-039>041-045>050-054>059-063>069-073>076-082>088-290800-
  CENTRAL AND SOUTHEAST OHIO

CITY           SKY/WX    TMP DP  RH WIND       PRES   REMARKS
COLUMBUS       LGT RAIN  57  57 100 SE10      29.94F
OSU AIRPORT    LGT RAIN  56  56 100 E5        29.94F
BOLTON FIELD   CLOUDY    56  56  98 SE7       29.95F
RICKENBACK AFB TSTM      57  57  99 SE6       29.94F
NEWARK         TSTM      57  32  38 CALM      29.98S
MARION         CLOUDY    58  53  84 S9        29.95S
LANCASTER      LGT RAIN  59  56  89 SE12      29.94F
ZANESVILLE     LGT RAIN  57  54  89 CALM      29.99F
NEW PHILLY     NOT AVBL
$$




USA.gov is the U.S. government's official web portal to all federal, state and local government web resources and services.